Flag for U.S.A. Weather past 2 weeks in Mesquite, Texas, U.S.A.

Now
90 °F

Sunny.


Feels Like: 90 °F
Forecast: 70 / 91 °F
Wind: 6 mph from South

Location: Mesquite Metro Airport

Current Time: Sep 2, 2015 at 3:04:15 PM

Latest Report: Sep 2, 2015 at 1:55 PM


Visibility: 10 mi

Pressure: 30.03 "Hg

Humidity: 41%

Dew point: 63 °F

Location of MesquiteLocation

Historic Weather in Mesquite — Graph

°F

Mesquite temperature yesterday

Maximum temperature yesterday: 95 °F (at 3:50 PM)
Minimum temperature yesterday: 72 °F (at 6:50 AM)
Average temperature yesterday: 80 °F

Past Weeks' High & Low Weather Summary

 TemperatureHumidityPressure
High100 °F (Aug 21, 7:50 PM)100% (Aug 20, 5:50 PM)30.16 "Hg (Aug 20, 5:50 PM)
Low64 °F (Aug 20, 6:50 AM)17% (Aug 26, 4:50 PM)29.72 "Hg (Aug 18, 6:50 PM)
Average79 °F71%29.99 "Hg
* Reported Aug 18 1:50 PM — Sep 2 1:55 PM, Mesquite, Weather by CustomWeather, © 2015

Note: Actual official high and low records may vary slightly from our data, if they occured in-between our weather recording intervals... More about our weather records

Advertising

Mesquite weather history for previous 24 hours

 ConditionsComfort  
Time TempWeatherWind HumidityBarometerVisibility
1:55 PM
Wed, Sep 2
90 °FSunny.6 mph41%30.03 "Hg10 mi
12:50 PM88 °FSunny.10 mph46%30.05 "Hg10 mi
11:50 AM86 °FSunny.8 mph52%30.07 "Hg10 mi
10:50 AM82 °FSunny.5 mph58%30.08 "Hg10 mi
9:50 AM81 °FSunny.5 mph70%30.09 "Hg10 mi
8:50 AM73 °FSunny.7 mph89%30.09 "Hg10 mi
7:50 AM70 °FClear.5 mph100%30.07 "Hg10 mi
6:50 AM70 °FClear.5 mph94%30.06 "Hg10 mi
6:15 AM69 °FClear.5 mph94%30.05 "Hg10 mi
5:55 AM69 °FClear.3 mph93%30.06 "Hg10 mi
5:35 AM69 °FClear.3 mph93%30.05 "Hg10 mi
5:15 AM70 °FClear.5 mph95%30.05 "Hg10 mi
4:55 AM71 °FClear.5 mph90%30.05 "Hg10 mi
4:35 AM71 °FClear.5 mph90%30.05 "Hg10 mi
4:15 AM72 °FClear.5 mph88%30.04 "Hg10 mi
3:55 AM72 °FClear.7 mph88%30.04 "Hg10 mi
3:35 AM72 °FClear.5 mph87%30.05 "Hg10 mi
3:15 AM72 °FClear.5 mph86%30.05 "Hg10 mi
2:55 AM72 °FClear.5 mph87%30.05 "Hg10 mi
2:35 AM72 °FClear.5 mph89%30.05 "Hg10 mi
2:15 AM72 °FClear.5 mph89%30.05 "Hg10 mi
1:55 AM73 °FClear.3 mph84%30.05 "Hg10 mi
1:35 AM74 °FClear.3 mph83%30.05 "Hg10 mi
1:15 AM74 °FClear.5 mph82%30.05 "Hg10 mi
12:55 AM75 °FClear.5 mph78%30.05 "Hg10 mi
12:35 AM76 °FClear.6 mph78%30.05 "Hg10 mi
12:15 AM76 °FClear.7 mph75%30.05 "Hg10 mi
11:55 PM
Tue, Sep 1
77 °FClear.7 mph73%30.05 "Hg10 mi
11:35 PM78 °FClear.6 mph71%30.05 "Hg10 mi
11:15 PM78 °FClear.6 mph69%30.04 "Hg10 mi
10:55 PM79 °FClear.8 mph66%30.04 "Hg10 mi
10:15 PM81 °FClear.8 mph61%30.04 "Hg10 mi
9:55 PM82 °FClear.7 mph59%30.03 "Hg10 mi
9:35 PM83 °FClear.8 mph58%30.02 "Hg10 mi
9:15 PM83 °FClear.9 mph56%30.02 "Hg10 mi
8:55 PM84 °FClear.8 mph55%30.01 "Hg10 mi
8:35 PM85 °FSunny.12 mph52%30.00 "Hg10 mi
8:15 PM87 °FScattered clouds.8 mph47%29.99 "Hg10 mi
7:50 PM88 °FSunny.9 mph43%29.98 "Hg10 mi
6:50 PM91 °FSunny.8 mph38%29.98 "Hg10 mi
5:55 PM91 °FSunny.10 mph38%29.97 "Hg10 mi
4:55 PM91 °FSunny.6 mph36%29.98 "Hg10 mi
3:50 PM95 °FScattered clouds.9 mph30%29.99 "Hg10 mi
Weather by CustomWeather, © 2015

See weather overviewHow to use our weather pages